Location: Finnegan
(51.1333°N, 112.0833°W)
Time: 20:44:58
(UTC+00:00)

Envisat - Pass Details

Date: 11 December 2021
Orbit: 764 x 766 km, 98.2° (Epoch: 26 January)

Event Time Altitude Azimuth Distance (km) Brightness Sun altitude
Rises 12:50:01 0° 13° (NNE) 3,247 6.3 -22.6°
Reaches altitude 10° 12:52:20 10° 12° (NNE) 2,316 5.5 -22.2°
Maximum altitude 12:57:27 80° 287° (WNW) 785 2.8 -21.5°
Drops below altitude 10° 13:02:31 10° 201° (SSW) 2,298 5.4 -20.7°
Sets 13:04:48 0° 200° (SSW) 3,220 6.1 -20.3°
